TimeCDT,TemperatureF,Dew PointF,Humidity,Sea Level PressureIn,VisibilityMPH,Wind Direction,Wind SpeedMPH,Gust SpeedMPH,PrecipitationIn,Events,Conditions,WindDirDegrees,DateUTC
12:15 AM,77.0,68.0,74,30.06,10.0,ENE,18.4,-,N/A,,Overcast,60,2012-10-09 05:15:00
12:55 AM,77.0,68.0,74,30.05,10.0,ENE,16.1,-,N/A,,Overcast,60,2012-10-09 05:55:00
1:15 AM,77.0,68.0,74,30.05,10.0,ENE,15.0,-,N/A,,Overcast,70,2012-10-09 06:15:00
1:55 AM,77.0,68.0,74,30.04,10.0,East,15.0,-,N/A,,Overcast,90,2012-10-09 06:55:00
2:35 AM,77.0,66.2,69,30.04,10.0,East,13.8,-,N/A,,Overcast,90,2012-10-09 07:35:00
2:55 AM,78.8,68.0,69,30.03,10.0,East,16.1,-,N/A,,Overcast,100,2012-10-09 07:55:00
3:15 AM,78.8,68.0,69,30.02,10.0,East,17.3,-,N/A,,Overcast,80,2012-10-09 08:15:00
3:35 AM,78.8,66.2,65,30.02,10.0,ESE,16.1,-,N/A,,Overcast,110,2012-10-09 08:35:00
3:55 AM,78.8,68.0,69,30.01,10.0,East,16.1,-,N/A,,Overcast,100,2012-10-09 08:55:00
4:15 AM,78.8,68.0,69,30.01,10.0,East,16.1,-,N/A,,Overcast,100,2012-10-09 09:15:00
4:35 AM,78.8,68.0,69,30.01,10.0,East,16.1,-,N/A,,Overcast,100,2012-10-09 09:35:00
4:55 AM,78.8,68.0,69,30.01,-9999.0,ESE,16.1,-,N/A,,Overcast,110,2012-10-09 09:55:00
5:15 AM,78.8,68.0,69,30.01,10.0,East,16.1,-,N/A,,Scattered Clouds,100,2012-10-09 10:15:00
5:35 AM,78.8,68.0,69,30.01,10.0,East,17.3,-,N/A,,Clear,100,2012-10-09 10:35:00
5:55 AM,78.8,68.0,69,30.02,10.0,East,16.1,-,N/A,,Clear,100,2012-10-09 10:55:00
6:15 AM,78.8,68.0,69,30.02,10.0,ESE,16.1,-,N/A,,Clear,110,2012-10-09 11:15:00
6:55 AM,78.8,68.0,69,30.02,10.0,ESE,17.3,-,N/A,,Clear,110,2012-10-09 11:55:00
7:15 AM,78.8,68.0,69,30.02,10.0,ESE,18.4,-,N/A,,Partly Cloudy,110,2012-10-09 12:15:00
7:35 AM,78.8,68.0,69,30.01,10.0,East,20.7,-,N/A,,Partly Cloudy,100,2012-10-09 12:35:00
7:55 AM,78.8,68.0,69,30.02,10.0,ESE,18.4,-,N/A,,Clear,110,2012-10-09 12:55:00
8:15 AM,78.8,68.0,69,30.02,10.0,East,18.4,-,N/A,,Clear,100,2012-10-09 13:15:00
8:35 AM,78.8,68.0,69,30.03,10.0,ESE,20.7,-,N/A,,Clear,110,2012-10-09 13:35:00
8:55 AM,78.8,69.8,74,30.04,10.0,ESE,19.6,-,N/A,,Scattered Clouds,110,2012-10-09 13:55:00
9:15 AM,78.8,68.0,69,30.04,10.0,ESE,20.7,-,N/A,,Partly Cloudy,110,2012-10-09 14:15:00
9:35 AM,78.8,68.0,69,30.05,10.0,ESE,20.7,-,N/A,,Clear,110,2012-10-09 14:35:00
9:55 AM,80.6,68.0,65,30.05,10.0,ESE,17.3,-,N/A,,Clear,110,2012-10-09 14:55:00
10:15 AM,80.6,68.0,65,30.05,10.0,East,18.4,-,N/A,,Clear,100,2012-10-09 15:15:00
10:35 AM,80.6,69.8,70,30.05,10.0,East,16.1,-,N/A,,Clear,100,2012-10-09 15:35:00
10:55 AM,80.6,69.8,70,30.05,10.0,ESE,16.1,-,N/A,,Partly Cloudy,110,2012-10-09 15:55:00
11:15 AM,80.6,69.8,70,30.04,10.0,ESE,18.4,-,N/A,,Clear,110,2012-10-09 16:15:00
11:35 AM,80.6,69.8,70,30.04,10.0,ESE,16.1,-,N/A,,Clear,120,2012-10-09 16:35:00
11:55 AM,80.6,69.8,70,30.04,10.0,ESE,17.3,-,N/A,,Partly Cloudy,110,2012-10-09 16:55:00
12:15 PM,80.6,68.0,65,30.03,10.0,ESE,17.3,-,N/A,,Partly Cloudy,110,2012-10-09 17:15:00
12:35 PM,80.6,68.0,65,30.03,10.0,ESE,17.3,-,N/A,,Clear,110,2012-10-09 17:35:00
12:55 PM,80.6,68.0,65,30.02,10.0,ESE,15.0,-,N/A,,Clear,120,2012-10-09 17:55:00
1:15 PM,80.6,69.8,70,30.01,10.0,ESE,15.0,-,N/A,,Partly Cloudy,120,2012-10-09 18:15:00
1:35 PM,80.6,69.8,70,30.00,10.0,ESE,15.0,-,N/A,,Partly Cloudy,110,2012-10-09 18:35:00
1:55 PM,80.6,69.8,70,29.99,10.0,ESE,13.8,-,N/A,,Partly Cloudy,110,2012-10-09 18:55:00
2:15 PM,80.6,68.0,65,29.99,10.0,East,15.0,-,N/A,,Clear,100,2012-10-09 19:15:00
2:35 PM,80.6,69.8,70,29.98,10.0,ESE,12.7,-,N/A,,Clear,110,2012-10-09 19:35:00
2:55 PM,80.6,69.8,70,29.97,10.0,East,13.8,-,N/A,,Partly Cloudy,100,2012-10-09 19:55:00
3:15 PM,80.6,69.8,70,29.97,10.0,ESE,13.8,-,N/A,,Partly Cloudy,110,2012-10-09 20:15:00
3:35 PM,80.6,69.8,70,29.96,10.0,East,15.0,-,N/A,,Clear,100,2012-10-09 20:35:00
3:55 PM,80.6,69.8,70,29.96,10.0,East,13.8,-,N/A,,Clear,100,2012-10-09 20:55:00
4:15 PM,80.6,69.8,70,29.96,10.0,ESE,13.8,-,N/A,,Clear,110,2012-10-09 21:15:00
4:35 PM,80.6,69.8,70,29.95,10.0,ESE,16.1,-,N/A,,Clear,110,2012-10-09 21:35:00
4:55 PM,80.6,69.8,70,29.95,10.0,East,15.0,-,N/A,,Clear,100,2012-10-09 21:55:00
5:15 PM,80.6,69.8,70,29.95,10.0,ESE,16.1,-,N/A,,Clear,110,2012-10-09 22:15:00
5:35 PM,80.6,71.6,74,29.95,10.0,East,16.1,-,N/A,,Clear,100,2012-10-09 22:35:00
5:55 PM,80.6,71.6,74,29.95,10.0,East,15.0,-,N/A,,Partly Cloudy,100,2012-10-09 22:55:00
6:15 PM,80.6,71.6,74,29.95,10.0,East,16.1,-,N/A,,Clear,100,2012-10-09 23:15:00
6:35 PM,80.6,71.6,74,29.95,10.0,East,17.3,-,N/A,,Partly Cloudy,90,2012-10-09 23:35:00
6:55 PM,80.6,71.6,74,29.95,10.0,East,17.3,-,N/A,,Partly Cloudy,90,2012-10-09 23:55:00
7:15 PM,80.6,71.6,74,29.95,10.0,East,18.4,-,N/A,,Partly Cloudy,100,2012-10-10 00:15:00
7:35 PM,80.6,71.6,74,29.95,10.0,East,18.4,-,N/A,,Partly Cloudy,90,2012-10-10 00:35:00
7:55 PM,80.6,71.6,74,29.95,10.0,East,18.4,-,N/A,,Partly Cloudy,80,2012-10-10 00:55:00
8:15 PM,80.6,71.6,74,29.96,10.0,East,18.4,-,N/A,,Scattered Clouds,100,2012-10-10 01:15:00
8:35 PM,80.6,73.4,79,29.96,10.0,East,19.6,-,N/A,,Mostly Cloudy,90,2012-10-10 01:35:00
8:55 PM,80.6,73.4,79,29.97,10.0,East,18.4,-,N/A,,Scattered Clouds,100,2012-10-10 01:55:00
9:15 PM,80.6,73.4,79,29.98,10.0,East,18.4,-,N/A,,Partly Cloudy,100,2012-10-10 02:15:00
9:35 PM,80.6,73.4,79,29.98,10.0,East,18.4,-,N/A,,Scattered Clouds,100,2012-10-10 02:35:00
9:55 PM,80.6,73.4,79,29.99,10.0,ESE,17.3,-,N/A,,Mostly Cloudy,110,2012-10-10 02:55:00
10:15 PM,80.6,73.4,79,29.99,10.0,East,17.3,-,N/A,,Scattered Clouds,100,2012-10-10 03:15:00
10:35 PM,80.6,73.4,79,30.00,10.0,ESE,17.3,-,N/A,,Scattered Clouds,110,2012-10-10 03:35:00
10:55 PM,80.6,75.2,84,30.00,9.0,ESE,18.4,-,N/A,,Mostly Cloudy,110,2012-10-10 03:55:00
11:15 PM,80.6,75.2,84,30.00,9.0,ESE,17.3,-,N/A,,Mostly Cloudy,110,2012-10-10 04:15:00
11:35 PM,80.6,75.2,84,30.00,9.0,ESE,18.4,-,N/A,,Mostly Cloudy,120,2012-10-10 04:35:00
11:55 PM,80.6,75.2,84,30.00,9.0,SE,18.4,-,N/A,,Scattered Clouds,130,2012-10-10 04:55:00